Location: Derby
(52.9213°N, 1.4761°W)
Time: 19:29:48
(UTC+01:00)

Tiros 1 - Pass Details

Date: 21 May 2025
Orbit: 620 x 651 km, 48.4° (Epoch: 13 June)

Event Time Altitude Azimuth Distance (km) Brightness Sun altitude
Rises 22:19:08 0° 273° (W) 2,911 11.2 -8.6°
Reaches altitude 10° 22:21:36 10° 265° (W) 2,008 10.1 -8.8°
Maximum altitude 22:25:45 34° 201° (SSW) 1,049 8.0 -9.2°
Enters shadow 22:29:25 13° 139° (SE) 1,843 8.8 -9.5°
Drops below altitude 10° 22:29:56 10° 136° (SE) 2,021 - -9.6°
Sets 22:32:25 0° 128° (SE) 2,933 - -9.8°
